Weather History for KBKW - December, 2011

Change the Weather History Date:

Sunday, December 11, 2011

  Actual Average Record
Temperature  
Mean Temperature 29 °F 35 °F  
Max Temperature 40 °F 43 °F 68 °F (2007)
Min Temperature 17 °F 27 °F -3 °F (1937)
Degree Days  
Heating Degree Days 36 30  
Month to date heating degree days 293 312  
Since 1 July heating degree days 1267 1452  
Cooling Degree Days 0 0  
Month to date cooling degree days 0 0  
Year to date cooling degree days 865 557  
Moisture  
Dew Point 15 °F    
Average Humidity 60    
Maximum Humidity 80    
Minimum Humidity 40    
Precipitation  
Precipitation 0.00 in 0.10 in 1.77 in (2008)
Month to date precipitation 2.24 1.09  
Year to date precipitation 40.38 39.28  
Snow  
Snow 0.00 in - - ()
Month to date snowfall 4.9  
Since 1 September snowfall 6.3  
Snow Depth 0.00 in    
Sea Level Pressure  
Sea Level Pressure 30.56 in    
Wind  
Wind Speed 4 mph (SE)    
Max Wind Speed 14 mph    
Max Gust Speed 18 mph    
Visibility 10 miles    
Events      
T = Trace of Precipitation, MM = Missing Value Source: NWS Daily Summary

Daily Weather History Graph

Daily Weather History Graph

Search for Another Location

Airport or City:

Trip Planner

Search our weather history database for the weather conditions in past years. The results will help you decide how hot, cold, wet, or windy it might be!

Date:

Astronomy

Dec. 11, 2011 Rise Set
Actual Time 7:29 AM EST 5:05 PM EST
Civil Twilight 7:00 AM EST 5:34 PM EST
Nautical Twilight 6:27 AM EST 6:07 PM EST
Astronomical Twilight 5:55 AM EST 6:39 PM EST
Moon 6:14 PM EST (12/11) 8:16 AM EST (12/11)
Length of Visible Light 10h 34m
Length of Day
9h 36m
Full, 99% of the Moon is Illuminated
Dec 11
Full
Dec 17
Last Quarter
Dec 24
New
Jan 1
First Quarter
Jan 9
Full

Hourly Weather History & Observations

Time (EST) Temp. Windchill Dew Point Humidity Pressure Visibility Wind Dir Wind Speed Gust Speed Precip Events Conditions
12:51 AM 19.9 °F - 12.9 °F 74% 30.55 in 10.0 mi Calm Calm - N/A   Clear
1:51 AM 19.0 °F - 12.0 °F 74% 30.55 in 10.0 mi Calm Calm - N/A   Clear
2:51 AM 21.0 °F - 12.9 °F 71% 30.55 in 10.0 mi Calm Calm - N/A   Clear
3:51 AM 19.0 °F - 12.0 °F 74% 30.56 in 10.0 mi Calm Calm - N/A   Clear
4:51 AM 18.0 °F - 12.0 °F 78% 30.57 in 10.0 mi Calm Calm - N/A   Clear
5:51 AM 21.0 °F - 12.0 °F 68% 30.58 in 10.0 mi Calm Calm - N/A   Clear
6:51 AM 19.0 °F - 12.0 °F 74% 30.61 in 10.0 mi Calm Calm - N/A   Clear
7:51 AM 21.9 °F 15.7 °F 12.0 °F 66% 30.63 in 10.0 mi SE 4.6 mph - N/A   Clear
8:51 AM 24.1 °F - 16.0 °F 71% 30.64 in 10.0 mi Calm Calm - N/A   Clear
9:51 AM 30.9 °F 27.5 °F 14.0 °F 50% 30.62 in 10.0 mi SE 3.5 mph - N/A   Clear
10:51 AM 34.0 °F 26.0 °F 15.1 °F 46% 30.62 in 10.0 mi SSE 10.4 mph - N/A   Clear
11:51 AM 36.0 °F 29.6 °F 17.1 °F 46% 30.59 in 10.0 mi SE 8.1 mph - N/A   Clear
12:51 PM 37.9 °F 31.5 °F 18.0 °F 45% 30.56 in 10.0 mi South 9.2 mph - N/A   Clear
1:51 PM 39.9 °F 35.1 °F 19.0 °F 43% 30.54 in 10.0 mi ESE 6.9 mph - N/A   Clear
2:51 PM 39.0 °F 34.0 °F 17.1 °F 41% 30.53 in 10.0 mi South 6.9 mph - N/A   Clear
3:51 PM 39.0 °F 34.0 °F 17.1 °F 41% 30.53 in 10.0 mi SE 6.9 mph - N/A   Clear
4:51 PM 37.0 °F 33.3 °F 17.1 °F 44% 30.54 in 10.0 mi SE 4.6 mph - N/A   Clear
5:51 PM 34.0 °F 31.0 °F 18.0 °F 52% 30.53 in 10.0 mi East 3.5 mph - N/A   Clear
6:51 PM 33.1 °F - 17.1 °F 52% 30.56 in 10.0 mi Calm Calm - N/A   Clear
7:51 PM 33.1 °F 27.7 °F 18.0 °F 54% 30.55 in 10.0 mi SSE 5.8 mph - N/A   Clear
8:51 PM 33.1 °F 24.9 °F 18.0 °F 54% 30.54 in 10.0 mi SE 10.4 mph - N/A   Clear
9:51 PM 32.0 °F 24.8 °F 17.6 °F 55% 30.44 in 10.0 mi SE 8.1 mph - N/A   Clear
10:51 PM 30.9 °F 24.3 °F 17.1 °F 57% 30.53 in 10.0 mi SE 6.9 mph - N/A   Clear
11:51 PM 30.9 °F 26.2 °F 16.0 °F 54% 30.51 in 10.0 mi SE 4.6 mph - N/A   Clear